Voltar ao catálogo

STARLINK-36152

AtivoComunicaçõesVLEO
NORAD 66968·PAYLOAD·🇺🇸 United States

Lançado Dec 8, 2025 de Cape Canaveral Space Force Station

Loading…

Próximas Passagens (próximas 24 horas)

TLE

AtualizadoSource: CelesTrak SupGP

Época: Sep 14, 2026, 21:34 UTC

1 66968C 25288K   26257.89909722  .00048521  00000+0  17570-2 0  2576
2 66968  43.0043  35.1281 0001919 279.2767  16.8226 15.27560989    19

Acompanhe STARLINK-36152 em tempo real com AllMySat

Download on the App Store